Weather History for KTVL - June, 2013

Change the Weather History Date:

Friday, June 28, 2013

  Actual Average Record
Temperature  
Mean Temperature 70 °F 58 °F  
Max Temperature 89 °F 76 °F 89 °F (2013)
Min Temperature 50 °F 39 °F 28 °F (1969)
Degree Days  
Heating Degree Days 0 7  
Month to date heating degree days 194 297  
Since 1 June heating degree days 194 297  
Since 1 July heating degree days 7057 7719  
Cooling Degree Days 5 0  
Month to date cooling degree days 10 0  
Year to date cooling degree days 10 0  
Since 1 June cooling degree days 10 0  
Growing Degree Days 20 (Base 50)    
Moisture  
Dew Point 49 °F    
Average Humidity 54    
Maximum Humidity 86    
Minimum Humidity 21    
Precipitation  
Precipitation T in - 0.30 in (2011)
Month to date precipitation 0.58  
Year to date precipitation 5.33  
Sea Level Pressure  
Sea Level Pressure 30.17 in    
Wind  
Wind Speed 2 mph (NE)    
Max Wind Speed 16 mph    
Max Gust Speed 23 mph    
Visibility 10 miles    
Events Thunderstorm    
T = Trace of Precipitation, MM = Missing Value Source: NWS Daily Summary

Daily Weather History Graph

Daily Weather History Graph

Search for Another Location

Airport or City:

Trip Planner

Search our weather history database for the weather conditions in past years. The results will help you decide how hot, cold, wet, or windy it might be!

Date:

Astronomy

Jun. 28, 2013 Rise Set
Actual Time 5:37 AM PDT 8:29 PM PDT
Civil Twilight 5:05 AM PDT 9:01 PM PDT
Nautical Twilight 4:24 AM PDT 9:41 PM PDT
Astronomical Twilight 3:38 AM PDT 10:27 PM PDT
Moon No Moon Rise 11:46 AM PDT (6/28)
Length of Visible Light 15h 56m
Length of Day
14h 52m
Waning Gibbous, 65% of the Moon is Illuminated
Jun 28
Waning Gibbous
Jun 29
Last Quarter
Jul 8
New
Jul 15
First Quarter
Jul 22
Full

Hourly Weather History & Observations

Time (PDT) Temp. Dew Point Humidity Pressure Visibility Wind Dir Wind Speed Gust Speed Precip Events Conditions
12:53 AM 57.0 °F 51.1 °F 81% 30.21 in 10.0 mi Calm Calm - N/A   Clear
1:53 AM 55.0 °F 50.0 °F 83% 30.21 in 10.0 mi Calm Calm - N/A   Clear
2:53 AM 54.0 °F 48.0 °F 80% 30.20 in 10.0 mi Calm Calm - N/A   Clear
3:53 AM 53.1 °F 48.0 °F 83% 30.19 in 10.0 mi Calm Calm - N/A   Clear
4:53 AM 51.1 °F 46.0 °F 83% 30.19 in 10.0 mi Calm Calm - N/A   Clear
5:53 AM 50.0 °F 46.0 °F 86% 30.20 in 10.0 mi Calm Calm - N/A   Clear
6:53 AM 52.0 °F 46.9 °F 83% 30.21 in 10.0 mi Calm Calm - N/A   Clear
7:53 AM 61.0 °F 50.0 °F 67% 30.20 in 10.0 mi Calm Calm - N/A   Clear
8:53 AM 70.0 °F 48.9 °F 47% 30.18 in 10.0 mi Calm Calm - N/A   Clear
9:53 AM 73.9 °F 52.0 °F 46% 30.16 in 10.0 mi NE 6.9 mph - N/A   Clear
10:53 AM 77.0 °F 51.1 °F 40% 30.15 in 10.0 mi Variable 4.6 mph - N/A   Clear
11:53 AM 80.1 °F 48.9 °F 34% 30.14 in 10.0 mi Variable 3.5 mph - N/A   Clear
12:53 PM 82.0 °F 46.9 °F 29% 30.12 in 10.0 mi NNE 5.8 mph - N/A   Clear
1:53 PM 84.9 °F 44.1 °F 24% 30.11 in 10.0 mi Calm Calm - N/A   Clear
2:53 PM 88.0 °F 42.1 °F 20% 30.09 in 10.0 mi NNE 6.9 mph - N/A   Clear
3:46 PM 89.6 °F 48.2 °F 24% 30.29 in 10.0 mi Variable 5.8 mph - N/A Thunderstorm Clear
3:53 PM 87.1 °F 48.0 °F 26% 30.09 in 10.0 mi Variable 4.6 mph - N/A Thunderstorm Thunderstorm
4:13 PM 82.4 °F 50.0 °F 32% 30.31 in 10.0 mi East 13.8 mph 20.7 mph N/A Thunderstorm Mostly Cloudy
4:34 PM 73.4 °F 57.2 °F 57% 30.31 in 10.0 mi Calm Calm - 0.00 in   Mostly Cloudy
4:53 PM 75.9 °F 55.9 °F 50% 30.14 in 10.0 mi Calm Calm - 0.00 in   Scattered Clouds
5:31 PM 84.2 °F 39.2 °F 20% 30.32 in 10.0 mi SSE 6.9 mph 23.0 mph N/A Thunderstorm Mostly Cloudy
5:53 PM 75.9 °F 46.9 °F 36% 30.14 in 10.0 mi Calm Calm - N/A   Mostly Cloudy
6:53 PM 80.1 °F 50.0 °F 35% 30.10 in 10.0 mi Calm Calm - N/A   Clear
7:53 PM 75.0 °F 46.9 °F 37% 30.09 in 10.0 mi NNE 3.5 mph - N/A   Clear
8:53 PM 72.0 °F 50.0 °F 46% 30.08 in 10.0 mi Calm Calm - N/A   Clear
9:53 PM 69.1 °F 51.1 °F 53% 30.09 in 10.0 mi WSW 3.5 mph - N/A   Clear
10:53 PM 64.9 °F 51.1 °F 61% 30.11 in 10.0 mi Calm Calm - N/A   Clear
11:53 PM 62.1 °F 51.1 °F 67% 30.10 in 10.0 mi Calm Calm - N/A   Clear